軌道要素
Epoch 2015 Oct. 25.0 TT = JDT 2457320.5
T 2015 Oct. 22.47386 TT MPCW
q 2.4482473 (2000.0) P Q
n 0.04783734 Peri. 313.22398 +0.96093354 +0.21097225
a 7.5155030 Node 35.72497 -0.06074977 +0.79227683
e 0.6742404 Incl. 17.86840 -0.27002998 +0.57252784
P 20.60
From 389 observations 1994 July 5-2016 Feb. 5, mean residual 0".6.
|